Whitefield, NH

6:23 PM EST on February 21, 2018 (GMT -0500)
Mount Washington Regional

Weather History for KHIE - May, 2014

Change the Weather History Date:

Sunday, May 18, 2014

  Actual Average Record
Temperature  
Mean Temperature 52 °F -  
Max Temperature 63 °F 62 °F 90 °F (2017)
Min Temperature 39 °F 35 °F 28 °F (2003)
Degree Days  
Heating Degree Days 13    
Growing Degree Days 2 (Base 50)    
Moisture  
Dew Point 36 °F    
Average Humidity 58    
Maximum Humidity 89    
Minimum Humidity 31    
Precipitation  
Precipitation 0.00 in - - ()
Sea Level Pressure  
Sea Level Pressure 30.12 in    
Wind  
Wind Speed 3 mph (NW)    
Max Wind Speed 13 mph    
Max Gust Speed 21 mph    
Visibility 10 miles    
Events      
Averages and records for this station are not official NWS values.
T = Trace of Precipitation, MM = Missing Value Source: NWS Daily Summary

Daily Weather History Graph

Daily Weather History Graph

Search for Another Location

Airport or City:

Trip Planner

Search our weather history database for the weather conditions in past years. The results will help you decide how hot, cold, wet, or windy it might be!

Date:

Astronomy

May. 18, 2014 Rise Set
Actual Time 5:15 AM EDT 8:09 PM EDT
Civil Twilight 4:41 AM EDT 8:44 PM EDT
Nautical Twilight 3:58 AM EDT 9:27 PM EDT
Astronomical Twilight 3:07 AM EDT 10:18 PM EDT
Moon 11:53 PM EDT (5/18) 9:02 AM EDT (5/18)
Length of Visible Light 16h 02m
Length of Day
14h 54m
Waning Gibbous, 81% of the Moon is Illuminated
May 18
Waning Gibbous
May 21
Last Quarter
May 28
New
Jun 5
First Quarter
Jun 13
Full

Hourly Weather History & Observations

Time (EDT) Temp. Dew Point Humidity Pressure Visibility Wind Dir Wind Speed Gust Speed Precip Events Conditions
12:52 AM 46.9 °F 42.1 °F 83% 30.11 in 10.0 mi Calm Calm - N/A   Scattered Clouds
1:52 AM 46.0 °F 42.1 °F 86% 30.12 in 10.0 mi Calm Calm - N/A   Overcast
2:52 AM 43.0 °F 39.9 °F 89% 30.12 in 10.0 mi Calm Calm - N/A   Mostly Cloudy
3:52 AM 43.0 °F 39.9 °F 89% 30.13 in 10.0 mi Calm Calm - N/A   Mostly Cloudy
4:52 AM 43.0 °F 39.9 °F 89% 30.14 in 10.0 mi Calm Calm - N/A   Overcast
5:52 AM 44.1 °F 41.0 °F 89% 30.16 in 10.0 mi Calm Calm - N/A   Overcast
6:52 AM 46.0 °F 41.0 °F 83% 30.17 in 10.0 mi Calm Calm - N/A   Clear
7:52 AM 51.1 °F 37.0 °F 59% 30.17 in 10.0 mi North 5.8 mph - N/A   Clear
8:52 AM 54.0 °F 37.9 °F 55% 30.17 in 10.0 mi West 6.9 mph - N/A   Clear
9:52 AM 55.0 °F 37.9 °F 53% 30.16 in 10.0 mi West 5.8 mph - N/A   Mostly Cloudy
10:52 AM 60.1 °F 37.9 °F 44% 30.15 in 10.0 mi North 6.9 mph - N/A   Scattered Clouds
11:52 AM 57.9 °F 36.0 °F 44% 30.13 in 10.0 mi NNW 6.9 mph - N/A   Mostly Cloudy
12:52 PM 62.1 °F 36.0 °F 38% 30.11 in 10.0 mi Calm Calm - N/A   Mostly Cloudy
1:52 PM 63.0 °F 37.0 °F 38% 30.09 in 10.0 mi Variable 3.5 mph - N/A   Scattered Clouds
2:52 PM 62.1 °F 34.0 °F 35% 30.08 in 10.0 mi North 12.7 mph 17.3 mph N/A   Mostly Cloudy
3:52 PM 61.0 °F 33.1 °F 35% 30.07 in 10.0 mi NNW 9.2 mph - N/A   Overcast
4:52 PM 63.0 °F 32.0 °F 31% 30.07 in 10.0 mi North 8.1 mph - N/A   Overcast
5:52 PM 59.0 °F 32.0 °F 36% 30.07 in 10.0 mi North 8.1 mph - N/A   Overcast
6:52 PM 60.1 °F 28.9 °F 31% 30.08 in 10.0 mi WNW 12.7 mph 20.7 mph N/A   Overcast
7:52 PM 57.0 °F 28.9 °F 34% 30.09 in 10.0 mi NW 11.5 mph 18.4 mph N/A   Overcast
8:52 PM 52.0 °F 30.0 °F 43% 30.12 in 10.0 mi NW 5.8 mph - N/A   Overcast
9:52 PM 48.0 °F 33.1 °F 56% 30.13 in 10.0 mi Calm Calm - N/A   Scattered Clouds
10:52 PM 41.0 °F 33.1 °F 73% 30.13 in 10.0 mi Calm Calm - N/A   Clear
11:52 PM 39.0 °F 32.0 °F 76% 30.13 in 10.0 mi Calm Calm - N/A   Clear